Location: Val-d'Or
(48.1170°N, 77.7670°W)
Time: 13:44:31
(UTC-05:00)

Tiangong 2 - Visible Passes

Search period start: 23 January 2019 00:00
Search period end: 02 February 2019 00:00
Orbit: 380 x 392 km, 42.8° (Epoch: 23 January)

Date Brightness Start Highest point End Pass type
(mag) Time Alt. Az. Time Alt. Az. Time Alt. Az.
23 Jan 2.6 06:17:41 21° SW 06:18:54 27° S 06:21:40 10° SE visible
24 Jan 3.4 05:21:24 21° SE 05:21:24 21° SE 05:22:52 10° ESE visible
24 Jan 3.3 06:54:10 10° WSW 06:56:16 16° SSW 06:58:22 10° SSE visible
25 Jan 2.9 05:57:22 21° SSW 05:57:26 21° SSW 05:59:57 10° SE visible
26 Jan 4.3 05:01:07 11° SE 05:01:07 11° SE 05:01:18 10° SE visible
26 Jan 3.6 06:33:39 10° SW 06:34:42 11° SSW 06:35:45 10° S visible
27 Jan 3.7 05:37:09 13° S 05:37:09 13° S 05:37:58 10° SSE visible
